Tracking 28790 objects as of 19-Apr-2024
HD Live streaming from Space Station
objects crossing your sky now

GLOBALSTAR M080

Track GLOBALSTAR M080 now!
10-day predictions
GLOBALSTAR M080 is classified as:


NORAD ID: 38041
Int'l Code: 2011-080B
Perigee: 1,419.9 km
Apogee: 1,421.5 km
Inclination: 52.0 °
Period: 114.1 minutes
Semi major axis: 7791 km
RCS: 4.9224 m2 (large)
Launch date: December 28, 2011
Source: Globalstar (GLOB)
Launch site: TYURATAM MISSILE AND SPACE COMPLEX (TTMTR)
Your satellite tracking list
Your tracking list is empty




NASA's NSSDC Master Catalog

Two Line Element Set (TLE):
1 38041U 11080B   24109.37027397 -.00000084  00000-0  11023-3 0  9993
2 38041  52.0055 263.2288 0001033 130.9435 240.5529 12.62271376569147
Source of the keplerian elements: AFSPC